Location: Colonia Mina de C?rbuni
(46.1667°N, 22.7167°E)
Time: 18:09:27
(UTC+00:00)

ADEOS - Pass Details

Date: 04 February 2023
Orbit: 792 x 793 km, 98.9° (Epoch: 29 March)

Event Time Altitude Azimuth Distance (km) Brightness Sun altitude
Rises 16:11:44 0° 167° (SSE) 3,280 6.8 -6.3°
Reaches altitude 10° 16:14:03 10° 169° (S) 2,354 6.1 -6.7°
Maximum altitude 16:19:15 78° 255° (WSW) 816 3.8 -7.6°
Drops below altitude 10° 16:24:30 10° 343° (NNW) 2,371 6.1 -8.5°
Sets 16:26:51 0° 345° (NNW) 3,305 6.8 -8.8°
